Other Surface Observations
Issued by NWS

Home | Current Version | Previous Version | Text Only | Print | Product List | Glossary On
Versions: 1 2 3 4 5 6 7 8 9 10 11 12 13 14 15 16 17 18 19 20 21 22 23 24 25 26 27 28 29 30 31 32 33 34 35 36 37 38 39 40 41 42 43 44 45 46 47 48 49 50
000
SXUS52 KTAE 050818
OSOTAE
OSOTAE
North Florida/South Alabama/Southwest Georgia Weather Roundup
National Weather Service Tallahassee Florida
300 AM EST THU MAR 05 2015

Note: "fair" indicates few or no clouds below 12,000 feet with no
significant weather and/or obstructions to visibility.

!FLZ017-115-028-034-025-050900
...North Florida...

CITY           SKY/WX    TMP DP  RH WIND       PRES   REMARKS
TALLAHASSEE    MOCLDY    69  66  90 SW8       30.01S
APALACHICOLA   CLOUDY    70  66  87 SW9       30.00F
PERRY          NOT AVBL
CROSS CITY       N/A     63  61  93 S5        30.04F
JACKSONVILLE   MOCLDY    65  65 100 SW3       30.04F
$$

!FLZ112-006-005-002-011-050900
...Florida Panhandle...

CITY           SKY/WX    TMP DP  RH WIND       PRES   REMARKS
MARIANNA       CLOUDY    70  69  97 S8        29.98F
BONIFAY        CLOUDY    70  67  90 S6        29.99S
PANAMA CITY NW CLOUDY    70  68  94 S8        29.98S FOG
TYNDALL AFB    CLOUDY    68  66  94 S12       29.98F
TYND DRONE APT PTSUNNY   68  68 100 S16       29.98F
DE FUNIAK SPR  CLOUDY    70  68  95 S10G18    29.98S
EGLIN AFB      FOG       66  66  98 S7        29.97S VSB 1/2
DESTIN         FOG       66  66 100 S7        29.97S VSB 1/2
HURLBURT       PTCLDY    68  63  84 S9        29.96F FOG
CRESTVIEW      CLOUDY    71  69  93 S13G22    29.98S
PENSACOLA      CLOUDY    69  68  96 S16       29.96S FOG
$$

!ALZ063-066-050900
...South Alabama...

CITY           SKY/WX    TMP DP  RH WIND       PRES   REMARKS
DOTHAN         CLOUDY    70  67  90 S9        30.00S
OZARK CAIRNS   CLOUDY    70  65  86 S13       29.95
FT RUCKER HELI CLOUDY    71  67  87 S14       29.94F
RUCKER HELI 3  MOCLDY    70  67  92 S13G23    29.96F
RUCKER HELI 2  CLOUDY    70  67  90 S9G18     29.95S
FLORALA APT    CLOUDY    70  67  90 S15       29.97F
ANDALUSIA      CLOUDY    75  68  78 SW7       29.94S
TROY           LGT RAIN  67  64  90 SW6       29.94S
EUFALA         CLOUDY    72  66  83 S9        29.93F
MOBILE         CLOUDY    70  69  97 S14       29.94F
$$

!GAZ120>161-050900
...Southwest and South Central Georgia...

CITY           SKY/WX    TMP DP  RH WIND       PRES   REMARKS
THOMASVILLE    CLOUDY    68 N/A N/A SW6       30.02F HAZE
BAINBRIDGE     PTCLDY    73  70  88 S3        30.00F
MOODY AFB      MOCLDY    70  64  83 SW9       30.00F
VALDOSTA       CLOUDY    69  67  93 VRB5      30.02F
MOULTRIE       MOCLDY    66  66 100 CALM      30.02F
BLAKELY        CLOUDY    72  70  94 SW9       29.98F
ALBANY         CLEAR     69  65  86 S12       29.99F
TIFTON         CLOUDY    67  65  94 SW9       30.01S
FITZGERALD     CLOUDY    70  67  92 SW8G17    30.02S
CORDELE        CLOUDY    69  65  89 SW7       29.98F
AMERICUS       CLOUDY    68  68 100 SW10      29.97F
HOMERVILLE     MOCLDY    70  68  94 SW5       30.02F
$$

!GMZ750-755-770-775-050900
...Coastal and Buoy Obs...

STATION/POSITION TIME  TEMP    WIND        PRES    VSBY  WAVE
                       AIR SEA DIR/SP/G                  HT/PER
                 (UTC) (F)     (DEG/KT/KT) (MB)    (MI)  (FT/S)
KEATON BEACH     0800   66     160/  5/  6 1016.8F
CEDAR KEY        0754   67     190/ 10/ 11 1017.7F
C TOWER          0800   68     200/ 16/ 16 1015.5F
APALACHICOLA BUO 0800   70 68  180/  8/  8 1016.5F         3/ 7
PANAMA CITY BUOY 0730   71 70  170/ 10/ 12 1015.6F         4/ 6
MOBILE BUOY      0710   73 72  200/ 10/ 12 1014.8          5/ 6
ORANGE BCH AL BU 0800   69 65  180/ 14/ 16 1013.7R         3/ 6
$$



USA.gov is the U.S. government's official web portal to all federal, state and local government web resources and services.